FLOCK 2P-6

Last updated on Wed Feb 14 2018 16:19:48 GMT+0000 (Coordinated Universal Time)

1 41606U 16040H 18044.94169608 .00001396 00000-0 60663-4 0 9992 2 41606 97.4294 110.6124 0009029 312.2754 47.7717 15.23952856 91507
UTC large
Height (km)
Speed (km/s)
/
Latitude / Longitude
Inclination (degrees)
Orbital Period (minutes)
Azimuth
Elevation
Range (km)
Doppler Factor

Next 0 passes for location: London (51.5072 / 0.1276)

Sorry there are no passes over London.